Location: Croisilles
(50.1998°N, 2.8793°E)
Time: 02:42:37
(UTC+00:00)

Cosmos 2058 Rocket - Pass Details

Date: 21 January 2021
Orbit: 611 x 638 km, 82.5° (Epoch: 24 February)

Event Time Altitude Azimuth Distance (km) Brightness Sun altitude
Rises 17:39:35 0° 351° (N) 2,943 6.5 -11.9°
Reaches altitude 10° 17:41:50 10° 353° (N) 2,033 5.6 -12.2°
Maximum altitude 17:46:20 72° 78° (ENE) 674 3.0 -12.9°
Drops below altitude 10° 17:50:50 10° 164° (SSE) 2,025 5.7 -13.6°
Sets 17:53:05 0° 166° (SSE) 2,929 6.5 -14.0°
